Location: Davidschlag
(48.4333°N, 14.2833°E)
Time: 15:22:02
(UTC+00:00)

H-2A R/B - Pass Details

Date: 27 February 2020
Orbit: 733 x 837 km, 98.2° (Epoch: 28 March)

Event Time Altitude Azimuth Distance (km) Brightness Sun altitude
Exits shadow 18:23:03 - 160° (SSE) 3,298 5.0 -17.4°
Reaches altitude 10° 18:25:15 10° 159° (SSE) 2,425 4.3 -17.7°
Maximum altitude 18:30:39 80° 74° (ENE) 854 2.1 -18.6°
Drops below altitude 10° 18:36:08 10° 348° (NNW) 2,463 4.9 -19.5°
Sets 18:38:31 0° 348° (NNW) 3,400 5.6 -19.9°
